Regional Weather Roundup
Issued by NWS Charleston, WV

Home | Current Version | Previous Version | Text Only | Print | Product List | Glossary Off
Versions: 1 2 3 4 5 6 7 8 9 10 11 12 13 14 15 16 17 18 19 20 21 22 23 24 25 26 27 28 29 30 31 32 33 34 35 36 37 38 39 40 41 42 43 44 45 46 47 48 49 50

000
ASUS41 KRLX 171810
RWRRLX
West Virginia Regional Weather Roundup
National Weather Service Charleston WV
200 PM EDT FRI APR 17 2015

Note: "fair" indicates few or no clouds below 12,000 feet with no
significant weather and/or obstructions to visibility.

WVZ003-171900-
Northern Panhandle of West Virginia

CITY           SKY/WX    TMP DP  RH WIND       PRES   REMARKS
WHEELING       CLOUDY    67  53  61 W9        30.06F
$$

WVZ009-171900-
Northwest West Virginia

CITY           SKY/WX    TMP DP  RH WIND       PRES   REMARKS
PARKERSBURG    PTSUNNY   70  59  68 VRB7      30.09F
$$

WVZ006-171900-
Western West Virginia

CITY           SKY/WX    TMP DP  RH WIND       PRES   REMARKS
HUNTINGTON     CLOUDY    69  59  70 N9        30.08F
$$

WVZ015-171900-
West Central West Virginia

CITY           SKY/WX    TMP DP  RH WIND       PRES   REMARKS
CHARLESTON     PTSUNNY   71  57  61 W7        30.08F
$$

WVZ022-031-171900-
North Central West Virginia

CITY           SKY/WX    TMP DP  RH WIND       PRES   REMARKS
CLARKSBURG     CLOUDY    63  58  83 SW7       30.09F
MORGANTOWN     CLOUDY    63  55  75 NE3       30.09F
$$

WVZ025-035-042-045-171900-
Southern West Virginia

CITY           SKY/WX    TMP DP  RH WIND       PRES   REMARKS
BECKLEY        PTSUNNY   69  52  54 N6        30.12F
LOGAN          CLOUDY    70  55  60 CALM      30.07F
BLUEFIELD      PTSUNNY   73  51  46 SW7       30.13F
LEWISBURG      PTSUNNY   70  53  56 CALM      30.11F
$$

WVZ047-171900-
Northern Mountains of West Virginia

CITY           SKY/WX    TMP DP  RH WIND       PRES   REMARKS
ELKINS         LGT RAIN  61  57  87 CALM      30.11F
$$

WVZ052-171900-
Eastern Panhandle of West Virginia

CITY           SKY/WX    TMP DP  RH WIND       PRES   REMARKS
MARTINSBURG    MOSUNNY   75  57  53 W12       30.02F
PETERSBURG     CLOUDY    72  53  51 W13       30.04S
$$



USA.gov is the U.S. government's official web portal to all federal, state and local government web resources and services.